Flag for Germany Weather past 2 weeks in Chemnitz, Saxony, Germany

Now
55 °F

Scattered clouds.


Feels Like: 55 °F
Forecast: 48 / 61 °F
Wind: 5 mph from Southeast

Location: Altenburg Nobitz

Current Time: Aug 23, 2014 at 6:32:05 PM

Latest Report: Aug 23, 2014 at 5:50 PM


Visibility: N/A

Pressure: 29.92 "Hg

Humidity: 88%

Dew point: 52 °F

Location of ChemnitzLocation

Historic Weather in Chemnitz — Graph

°F

Chemnitz temperature yesterday

Maximum temperature yesterday: 70 °F (at 12:50 PM)
Minimum temperature yesterday: 55 °F (at 8:20 AM)
Average temperature yesterday: 65 °F

Past Weeks' High & Low Weather Summary

 TemperatureHumidityPressure
High86 °F (Aug 10, 3:50 PM)88% (Aug 15, 3:50 PM)30.04 "Hg (Aug 15, 3:50 PM)
Low54 °F (Aug 20, 8:20 AM)37% (Aug 22, 6:20 PM)29.65 "Hg (Aug 13, 4:20 PM)
Average66 °F59%29.89 "Hg
* Reported Aug 8 5:20 PM — Aug 23 5:20 PM, Chemnitz, Weather by CustomWeather, © 2014

Note: Actual official high and low records may vary slightly from our data, if they occured in-between our weather recording intervals... More about our weather records

Advertising

Chemnitz weather history for previous 24 hours

 ConditionsComfort  
Time TempWeatherWind HumidityBarometerVisibility
5:20 PM
Aug 23
54 °FCool.2 mph88%29.92 "Hg5 mi
4:50 PM61 °FCool.3 mph77%29.89 "Hg5 mi
4:20 PM61 °FLight rain. Scattered clouds.2 mph77%N/AN/A
3:50 PM61 °FScattered clouds.5 mph77%29.92 "HgN/A
3:20 PM63 °FScattered clouds.5 mph68%29.92 "HgN/A
1:50 PM64 °FScattered clouds.8 mph60%29.92 "HgN/A
12:50 PM63 °FScattered clouds.9 mph64%29.92 "HgN/A
12:20 PM63 °FScattered clouds.7 mph64%29.95 "HgN/A
11:50 AM63 °FScattered clouds.9 mph64%29.95 "HgN/A
11:20 AM61 °FPassing clouds.10 mph68%29.95 "HgN/A
10:50 AM59 °FPartly sunny.8 mph72%29.95 "HgN/A
10:20 AM59 °FLight rain. Broken clouds.9 mph72%29.92 "HgN/A
9:50 AM61 °FSunny.12 mph63%29.92 "Hg10 mi
9:20 AM63 °FSunny.9 mph64%29.92 "Hg10 mi
1:50 AM55 °FClear.6 mph67%29.92 "Hg10 mi
7:50 PM
Aug 22
63 °FSunny.7 mph49%29.92 "Hg10 mi
7:20 PM64 °FSunny.9 mph43%29.92 "Hg10 mi
6:50 PM64 °FPassing clouds.9 mph43%29.92 "HgN/A
6:20 PM66 °FSunny.13 mph37%29.92 "Hg10 mi
Weather by CustomWeather, © 2014

See weather overviewHow to use our weather pages